Wind_Speed
26 24 20 21 21 22 22 23 11 7 7 18 12 16 23 29 29 26 26 34 31 35 32 45 53 52 55 54 48 42 42 41 38 36 34 32 29 25
30 28 26 27 24 23 22 20 20 17 9 16 21 24 25 26 28 29 28 26 30 37 37 39 38 55 54 57 53 46 46 43 41 38 37 33 30 27
29 28 30 29 26 25 24 21 20 16 12 26 20 22 25 27 25 24 30 28 27 29 29 40 39 49 50 58 56 53 50 47 45 43 40 37 31 30
27 25 26 28 29 28 28 27 24 20 14 21 21 21 23 25 24 28 29 30 29 28 28 28 34 39 52 56 57 57 52 49 46 44 44 40 34 30
21 21 21 21 25 26 27 24 21 19 20 23 22 21 22 20 25 25 26 29 30 30 30 31 33 36 44 53 56 58 55 51 50 49 45 43 39 33
25 25 26 25 22 22 23 19 19 20 20 23 23 21 18 16 20 23 28 24 29 28 28 29 32 34 42 46 58 63 58 56 52 52 50 47 42 32
31 30 30 32 32 31 24 22 20 20 20 20 23 20 14 11 14 17 23 28 29 28 29 26 27 32 36 46 53 63 65 64 62 59 53 46 38 36
30 31 33 34 32 27 23 22 22 23 23 22 22 19 17 16 18 19 20 16 7 14 15 24 25 30 29 38 48 58 65 68 65 61 53 47 42 38
29 31 33 29 30 30 31 31 27 24 26 29 25 23 19 18 18 18 19 18 21 22 17 5 9 18 25 35 44 60 67 69 66 60 54 47 42 36
25 27 30 32 31 31 32 31 29 29 26 27 28 29 27 25 26 23 22 22 18 10 10 3 6 10 13 27 45 62 68 67 64 58 49 42 36 36
25 26 27 29 30 30 30 28 28 28 26 23 23 21 23 26 21 23 16 11 2 2 1 5 6 23 26 25 30 35 58 58 60 49 40 35 36 30
24 24 26 28 29 30 31 27 22 23 24 19 15 19 19 21 21 21 19 11 6 3 12 7 18 15 7 19 29 33 40 48 43 41 36 34 30 27
26 26 24 29 30 33 29 25 24 21 16 14 15 15 15 15 14 13 11 18 14 4 19 18 10 15 10 13 21 28 38 37 37 33 30 27 25 24
28 27 28 29 31 28 24 21 14 13 12 11 11 9 7 5 5 4 5 11 15 10 29 21 15 16 22 19 12 25 31 34 36 34 29 25 20 19
29 30 29 28 26 22 15 12 12 10 8 6 5 4 4 4 7 9 10 10 13 19 23 20 29 28 30 17 19 24 27 25 32 32 28 26 21 19
31 28 26 23 19 15 12 9 8 7 5 3 1 3 6 9 13 17 20 22 25 21 15 18 28 32 24 26 31 26 28 12 30 28 26 24 22 18
28 23 19 18 17 12 8 7 6 4 3 1 5 8 10 12 13 15 19 15 17 16 22 23 23 26 26 33 25 25 23 27 29 27 27 24 20 16
21 17 14 16 15 11 6 4 3 3 1 5 7 9 11 12 13 13 16 19 19 18 21 26 32 33 30 25 20 27 25 26 27 27 25 22 17 14
15 16 16 17 14 11 7 5 2 1 4 7 9 10 11 12 14 15 17 20 18 19 18 18 18 19 9 5 15 19 28 25 27 23 20 18 18 17
17 19 19 17 14 10 8 5 3 4 6 9 11 12 13 14 16 16 15 18 18 18 19 20 19 16 18 8 9 16 18 29 27 24 20 16 16 16
17 21 18 15 12 10 9 6 6 7 9 11 12 13 13 16 17 18 20 21 22 20 17 17 17 16 25 30 18 16 18 17 19 22 19 17 13 9
17 20 17 14 11 10 9 8 8 9 11 12 14 15 15 17 21 22 23 23 20 24 26 23 22 23 22 20 18 17 20 19 16 13 11 6 5 6
18 18 16 13 10 10 10 9 10 11 13 14 15 16 16 19 22 25 26 28 30 28 26 23 21 20 24 24 28 21 20 18 14 12 8 6 3 3
Wind_Direction
290 288 278 287 283 279 275 277 258 280 285 294 287 294 302 310 316 318 291 266 272 258 256 248 232 221 209 208 204 202 201 199 196 192 187 181 178 178
297 289 281 280 282 281 278 274 271 272 286 306 291 294 298 301 302 306 311 302 282 261 254 254 253 230 222 209 205 202 201 199 194 191 187 182 174 171
303 297 286 281 278 280 277 265 266 270 284 292 293 294 296 301 305 309 312 307 295 283 274 260 254 244 235 209 207 203 201 197 196 196 183 177 170 166
304 303 293 290 289 294 290 274 272 276 266 281 290 294 294 298 304 309 313 309 301 297 285 273 261 254 233 223 210 204 199 196 196 185 176 169 166 162
310 305 299 305 305 308 304 291 277 278 274 267 284 288 282 284 298 308 312 303 296 297 293 279 266 259 250 230 217 208 197 193 190 183 177 170 162 161
315 314 313 312 313 312 305 295 286 284 276 272 279 275 270 283 295 307 307 301 295 300 293 278 275 260 254 239 215 203 195 191 187 176 169 168 174 175
312 310 311 310 307 302 297 289 288 291 279 270 279 278 262 273 272 293 287 294 295 294 290 285 268 255 243 241 219 203 193 187 180 174 174 175 176 171
316 313 313 314 308 307 297 288 281 281 275 270 267 265 274 267 267 268 272 285 296 304 288 280 254 246 242 224 209 195 182 180 175 175 175 177 177 177
308 309 311 308 306 304 303 298 289 280 273 269 268 267 272 267 271 270 265 262 276 288 269 240 249 224 222 218 204 187 184 180 175 175 175 176 177 172
310 309 305 307 306 305 302 296 290 286 279 272 274 281 279 285 287 280 277 280 272 245 205 80 65 70 174 191 192 175 172 174 169 167 170 172 168 169
314 314 307 303 304 310 300 286 283 285 285 273 277 277 281 285 279 288 267 238 203 35 64 110 92 80 82 110 143 150 149 147 157 160 162 161 168 164
312 309 307 312 309 312 303 291 283 280 284 285 280 285 283 280 281 272 257 215 145 112 156 104 131 106 53 81 118 131 130 145 150 151 153 161 162 165
315 312 309 312 312 316 310 298 288 291 291 294 292 286 284 285 277 263 253 219 165 127 169 141 149 110 99 119 108 120 130 132 134 138 152 163 172 177
313 309 309 312 315 317 311 307 302 296 291 291 293 284 280 271 247 231 199 197 202 210 172 160 144 140 136 123 115 126 128 135 140 143 150 152 157 171
309 312 313 314 317 323 323 318 313 306 299 285 260 267 249 204 153 120 127 134 124 147 165 164 153 137 137 134 134 133 129 134 148 150 151 154 159 159
314 311 312 313 318 318 323 333 333 324 304 290 238 148 149 145 127 131 125 120 109 102 127 154 148 145 129 133 137 134 138 136 157 158 158 160 161 158
317 311 314 316 318 318 324 338 336 339 342 165 136 132 128 128 124 137 135 123 114 110 103 120 136 134 128 138 126 135 138 137 157 159 157 152 156 159
323 306 308 317 315 303 293 315 334 349 87 129 133 130 119 124 123 124 124 112 110 111 112 118 120 109 101 90 126 130 134 141 157 159 155 141 141 157
334 324 321 320 316 303 275 267 268 220 152 140 135 127 131 127 124 111 110 110 102 106 111 122 127 128 118 106 84 146 139 144 150 148 155 156 152 158
339 326 321 323 316 295 265 245 208 176 153 145 135 138 141 135 121 111 111 113 111 111 106 117 115 117 123 128 114 84 157 157 155 147 146 149 151 159
327 331 327 323 316 290 260 242 214 186 173 151 143 148 149 144 130 127 122 119 119 112 98 102 112 123 122 122 103 94 106 148 161 160 154 149 150 167
321 329 326 321 310 287 254 230 201 186 175 160 154 155 153 150 145 138 130 122 113 116 110 113 125 131 129 123 116 117 111 116 127 131 151 163 159 183
315 327 327 319 304 278 250 226 206 194 183 170 163 160 159 152 153 150 143 137 129 123 121 115 118 127 123 126 129 125 125 128 130 137 130 146 188 248
Height
786 784 783 780 779 778 776 775 773 767 762 752 751 752 751 750 749 746 741 739 739 743 744 746 746 750 753 759 764 771 780 787 793 801 807 812 819 826
781 780 777 775 773 771 769 768 768 766 758 755 752 748 746 744 744 742 739 737 737 734 734 737 739 740 746 748 754 763 773 780 786 794 801 809 814 822
775 772 769 769 767 764 763 762 761 761 759 749 748 744 742 740 738 738 736 734 733 731 731 731 730 732 740 737 743 752 762 771 781 789 795 803 811 815
769 767 765 764 762 761 759 757 755 755 754 746 744 740 737 738 734 731 729 728 726 725 724 723 725 728 731 734 735 743 754 764 775 782 789 796 805 813
766 763 760 759 756 755 754 752 751 749 748 742 736 736 735 733 730 725 725 722 721 721 720 719 720 723 724 726 730 737 743 757 768 776 783 789 801 811
764 761 758 756 753 751 750 748 745 743 742 738 733 732 729 726 725 720 714 716 717 716 714 713 713 715 717 720 722 723 735 749 761 769 777 785 791 806
759 756 753 751 748 745 745 742 740 738 737 732 728 726 724 723 722 719 717 713 709 709 706 706 708 708 709 713 715 717 724 735 746 760 770 779 789 799
753 751 748 744 741 739 737 735 734 733 731 728 722 719 719 719 718 718 716 711 708 706 701 701 703 701 701 705 710 714 718 726 736 751 763 772 783 795
751 746 742 739 736 732 728 726 725 725 723 722 717 714 713 713 715 713 710 708 706 703 700 699 697 693 694 697 703 710 714 721 731 743 755 768 779 792
747 742 737 732 730 726 721 718 716 715 715 714 711 707 707 707 707 705 704 700 699 696 694 698 697 694 694 695 699 705 710 718 729 742 756 768 779 790
742 737 733 727 723 720 715 711 708 706 707 705 704 702 701 700 699 699 696 696 695 694 694 698 701 700 701 703 709 719 711 719 730 743 759 773 784 791
735 731 727 722 717 713 709 705 701 699 699 698 698 697 695 693 692 692 690 689 691 695 697 701 703 701 715 720 722 728 728 726 738 750 765 778 786 794
730 724 721 716 711 707 703 700 696 695 694 693 692 691 690 689 687 686 684 685 687 690 693 697 702 704 710 725 732 733 730 740 748 759 772 780 787 793
726 721 716 711 706 701 698 694 692 691 690 689 688 688 686 685 684 682 682 683 685 687 691 695 698 703 708 722 730 739 743 749 754 764 774 782 789 794
722 716 711 706 702 698 694 692 690 689 688 687 687 686 685 685 683 681 683 686 689 692 695 697 699 706 712 718 728 739 745 756 761 767 775 782 787 792
716 710 706 703 699 696 692 690 690 688 687 686 686 686 686 686 684 686 689 691 693 698 701 704 707 709 716 723 729 739 748 753 762 770 776 783 789 794
711 706 702 699 697 694 692 691 690 689 688 687 687 688 688 687 689 691 693 694 697 702 705 709 712 716 721 726 735 743 749 757 765 771 778 785 790 794
708 704 700 698 696 694 692 692 691 690 689 688 689 689 690 691 694 696 696 698 701 705 708 713 715 720 727 737 742 746 754 759 767 773 779 783 789 795
708 704 700 698 695 693 692 693 693 692 691 691 691 692 694 696 698 700 701 703 706 710 714 717 720 723 729 739 749 752 754 762 767 775 780 785 790 795
707 704 700 698 696 693 692 693 693 693 693 693 693 695 698 700 702 704 706 708 712 716 719 722 725 729 731 738 747 757 761 763 769 776 782 787 792 797
706 703 700 698 696 694 693 693 694 695 695 695 696 699 701 703 706 708 711 714 717 721 725 728 731 735 737 742 751 761 766 770 774 778 782 787 792 796
706 701 699 697 695 694 693 694 694 696 697 697 698 701 704 706 709 712 716 719 723 726 730 734 738 740 742 747 755 762 769 774 777 781 784 787 790 793
704 700 697 696 694 694 693 694 695 696 698 699 700 703 706 709 712 715 719 723 727 731 735 738 741 744 748 753 758 765 770 775 779 783 786 788 789 791